STARLINK-36500, 67320

Orbit data source: Space-Track

STARLINK-36500, 67320 is a payload satellite owned by SpaceX/Seattle (US) in LEO that was launched on Sun, 04 Jan 2026 UTC via an FALCON 9 launch vehicle from the Air Force Eastern Test Range (AFETR). Payload-class satellites include a variety of spacecraft equipped with specific instruments for various scientific and technological missions. These include communications satellites like Starlink; space stations such as the ISS; scientific satellites like the Hubble; Earth observation satellites from companies like Planet Labs, Umbra, and HawkEye 360; GPS; miniature CubeSats for education and research; and military/defense satellites.

Loading next visibility...
Identifier
67320, 2026-002R
Orbit
LEO
Country
Flag of USUS
Related business
Manufacturer
SpaceX/Seattle
Mission
Operational Commercial Communications
Bus & Motor
STARLINK V2MO, Unknown motor
Mass
575 kg wet, ~530 kg dry
Launch date (UTC)
2026-01-04 (5 months ago)
Launch vehicle
FALCON 9
Launch site
Air Force Eastern Test Range (AFETR)
Object type
Payload
Rocket body
Debris
Shape & HBR
Box + 2 Pan, 17.7 m
Radar Cross Section
36.964 m², Large (>1 m²)

Expand to show TLE details & history
Last TLE update: 1 day ago

TLE from 1 day ago
0 STARLINK-36500
1 67320U 26002R   26170.55784968  .00007652  00000-0  28692-3 0  9996
2 67320  43.0068 110.3743 0002992 266.0922  93.9588 15.27623212 26718
Epoch: 2026-06-19T13:23Z
TLE epoch observation values (Epoch: 2026-06-19T13:23:18.212Z)
Latitude
0.00001°
Longitude
1.76332°
Altitude
482.838 km
Speed
7.626 km/s
True Right ascension
07h 21m 29s
True Declination
0° 00' 00"
Sunlit
Object was in daylight at epoch
Visualization orbit readout
Latitude
Unknown
Longitude
Unknown
Altitude
Unknown
Speed
Unknown
Apparent Right ascension
Unknown
Apparent Declination
Unknown
Sunlit
N/A
Visualization observer readout
Local Sidereal Time
07:18:35
Azimuth
Unknown
Elevation
Unknown
Doppler factor
Unknown
Orbital elements
Apogee altitude
486.917 km
Perigee altitude
482.81 km
Semi-major axis
6,863.001 km
Eccentricity
0.0003
Inclination
43.0068°
RAAN
110.3743°
Arg. of periapsis
266.0922°
True anomaly
93.993°
Mean anomaly
93.9588°
Eccentric anomaly
93.9759°
Mean motion
3.81744 °/min
Orbital period
94.3 mins
BSTAR
0.00028692
Loading maneuver chart data...
Computing Atmospheric mass density...
Loading historical data...
Loading historical data...
Loading historical data...
Loading historical data...
Loading historical data...
Loading historical data...
Loading historical data...

Documentation

Showing up to 5 results
|